Oklahoma City Wiley Post, OK

12:41 AM CDT on March 23, 2017 (GMT -0500)
Wiley Post

Weather History for KPWA - January, 2013

Change the Weather History Date:

Saturday, January 12, 2013

  Actual Average Record
Temperature  
Mean Temperature 40 °F -  
Max Temperature 54 °F 39 °F 73 °F (2014)
Min Temperature 25 °F 21 °F 0 °F (1962)
Degree Days  
Heating Degree Days 25    
Moisture  
Dew Point 21 °F    
Average Humidity 60    
Maximum Humidity 75    
Minimum Humidity 31    
Precipitation  
Precipitation 0.00 in - - ()
Sea Level Pressure  
Sea Level Pressure 29.96 in    
Wind  
Wind Speed 17 mph (North)    
Max Wind Speed 26 mph    
Max Gust Speed 34 mph    
Visibility 10 miles    
Events Thunderstorm    
Averages and records for this station are not official NWS values.
T = Trace of Precipitation, MM = Missing Value Source: NWS Daily Summary

Daily Weather History Graph

Daily Weather History Graph

Search for Another Location

Airport or City:

Trip Planner

Search our weather history database for the weather conditions in past years. The results will help you decide how hot, cold, wet, or windy it might be!

Date:

Astronomy

Jan. 12, 2013 Rise Set
Actual Time 7:39 AM CST 5:38 PM CST
Civil Twilight 7:12 AM CST 6:06 PM CST
Nautical Twilight 6:40 AM CST 6:37 PM CST
Astronomical Twilight 6:10 AM CST 7:08 PM CST
Moon 8:03 AM CST (1/12) 7:04 PM CST (1/12)
Length of Visible Light 10h 54m
Length of Day
9h 58m
New Moon, 1% of the Moon is Illuminated
Jan 12
New Moon
Jan 18
First Quarter
Jan 26
Full
Feb 3
Last Quarter
Feb 10
New

Hourly Weather History & Observations

Time (CST) Temp. Windchill Dew Point Humidity Pressure Visibility Wind Dir Wind Speed Gust Speed Precip Events Conditions
12:53 AM 54.0 °F - 24.1 °F 31% 29.83 in 10.0 mi NW 9.2 mph - N/A   Clear
1:53 AM 52.0 °F - 21.9 °F 31% 29.85 in 10.0 mi NNW 12.7 mph - N/A   Clear
2:53 AM 46.9 °F - 24.1 °F 41% 29.86 in 10.0 mi North 12.7 mph - N/A   Clear
3:53 AM 44.1 °F 36.5 °F 27.0 °F 51% 29.88 in 10.0 mi North 17.3 mph - N/A   Clear
4:53 AM 39.9 °F 31.1 °F 28.9 °F 65% 29.89 in 10.0 mi North 17.3 mph 29.9 mph N/A   Clear
5:53 AM 37.9 °F 27.3 °F 28.9 °F 70% 29.91 in 10.0 mi North 21.9 mph 26.5 mph N/A   Clear
6:53 AM 37.0 °F 28.1 °F 28.9 °F 73% 29.96 in 10.0 mi North 15.0 mph - N/A   Scattered Clouds
7:53 AM 36.0 °F 26.3 °F 28.0 °F 73% 29.98 in 10.0 mi North 16.1 mph - N/A   Mostly Cloudy
8:53 AM 36.0 °F 24.4 °F 25.0 °F 64% 29.96 in 10.0 mi North 23.0 mph - N/A   Scattered Clouds
9:53 AM 35.1 °F 24.8 °F 23.0 °F 61% 29.97 in 10.0 mi North 17.3 mph 28.8 mph 0.00 in   Overcast
10:06 AM 35.6 °F 24.5 °F 21.2 °F 56% 29.95 in 10.0 mi NNE 20.7 mph 26.5 mph N/A Thunderstorm Overcast
10:30 AM 35.6 °F 25.5 °F 21.2 °F 56% 29.93 in 10.0 mi NNE 17.3 mph 27.6 mph N/A   Mostly Cloudy
10:53 AM 35.1 °F 24.5 °F 19.9 °F 54% 29.99 in 10.0 mi North 18.4 mph 25.3 mph N/A   Overcast
11:53 AM 32.0 °F 19.8 °F 21.0 °F 64% 29.94 in 10.0 mi North 20.7 mph - 0.00 in   Overcast
12:53 PM 33.1 °F 19.8 °F 19.0 °F 56% 29.91 in 10.0 mi North 26.5 mph 34.5 mph N/A   Mostly Cloudy
1:53 PM 32.0 °F 19.2 °F 17.1 °F 54% 29.92 in 10.0 mi North 23.0 mph 29.9 mph N/A   Overcast
2:53 PM 30.0 °F 16.3 °F 23.0 °F 75% 29.93 in 7.0 mi North 24.2 mph 33.4 mph 0.00 in   Overcast
3:53 PM 28.9 °F 15.8 °F 21.9 °F 75% 29.93 in 10.0 mi North 20.7 mph - 0.00 in   Overcast
4:44 PM 28.4 °F 15.4 °F 21.2 °F 74% 29.97 in 10.0 mi North 19.6 mph 27.6 mph N/A   Overcast
4:53 PM 28.9 °F 15.8 °F 21.0 °F 72% 29.98 in 10.0 mi North 20.7 mph 25.3 mph N/A   Overcast
5:30 PM 28.4 °F 17.0 °F 19.4 °F 69% 29.98 in 10.0 mi North 15.0 mph 26.5 mph N/A   Overcast
5:53 PM 30.0 °F 17.9 °F 18.0 °F 61% 30.00 in 10.0 mi North 18.4 mph 25.3 mph N/A   Overcast
5:58 PM 30.2 °F 18.1 °F 17.6 °F 60% 29.98 in 10.0 mi North 18.4 mph 26.5 mph N/A   Overcast
6:23 PM 30.2 °F 18.1 °F 17.6 °F 60% 30.00 in 10.0 mi North 18.4 mph 25.3 mph N/A   Overcast
6:53 PM 28.4 °F 15.1 °F 17.6 °F 64% 30.00 in 10.0 mi North 20.7 mph 27.6 mph N/A   Overcast
7:53 PM 28.0 °F 15.3 °F 15.1 °F 58% 30.04 in 10.0 mi North 18.4 mph 26.5 mph N/A   Mostly Cloudy
8:53 PM 27.0 °F 13.9 °F 14.0 °F 58% 30.06 in 10.0 mi North 18.4 mph - N/A   Partly Cloudy
9:53 PM 26.1 °F 12.7 °F 12.9 °F 58% 30.07 in 10.0 mi North 18.4 mph 23.0 mph N/A   Clear
10:53 PM 26.1 °F 12.3 °F 12.0 °F 55% 30.10 in 10.0 mi North 19.6 mph 26.5 mph N/A   Clear
11:53 PM 25.0 °F 10.6 °F 12.0 °F 58% 30.09 in 10.0 mi North 20.7 mph 27.6 mph N/A   Clear